Weather History for Stuart, FL

Change the Weather History Date:

Tuesday, February 26, 2013

  Actual Average Record
Temperature  
Mean Temperature 78 °F -  
Max Temperature 86 °F 74 °F 84 °F (2014)
Min Temperature 71 °F 51 °F 62 °F (2014)
Cooling Degree Days 14    
Growing Degree Days 28 (Base 50)    
Moisture  
Dew Point 68 °F    
Average Humidity 78    
Maximum Humidity 94    
Minimum Humidity 45    
Precipitation  
Precipitation 0.00 in - - ()
Sea Level Pressure  
Sea Level Pressure 29.85 in    
Wind  
Wind Speed 8 mph (SSW)    
Max Wind Speed 24 mph    
Max Gust Speed 32 mph    
Visibility 9 miles    
Events      
Averages and records for this station are not official NWS values.
T = Trace of Precipitation, MM = Missing Value Source: NWS Daily Summary

Daily Weather History Graph

Daily Weather History Graph

Search for Another Location

Airport:

Trip Planner

Search our weather history database for the weather conditions in past years. The results will help you decide how hot, cold, wet, or windy it might be!

Date:

Astronomy

Feb. 26, 2013 Rise Set
Actual Time 6:47 AM EST 6:20 PM EST
Civil Twilight 6:24 AM EST 6:43 PM EST
Nautical Twilight 5:57 AM EST 7:10 PM EST
Astronomical Twilight 5:30 AM EST 7:37 PM EST
Moon 7:23 PM EST (2/26) 6:58 AM EST (2/26)
Length of Visible Light 12h 19m
Length of Day
11h 32m
Full, 99% of the Moon is Illuminated
Feb 26
Full
Mar 4
Last Quarter
Mar 11
New
Mar 19
First Quarter
Mar 27
Full

Hourly Weather History & Observations

Time (EST) Temp. Heat Index Dew Point Humidity Pressure Visibility Wind Dir Wind Speed Gust Speed Precip Events Conditions
12:15 AM 73.4 °F - 69.8 °F 88% 29.86 in 10.0 mi South 6.9 mph - N/A   Clear
12:35 AM 73.4 °F - 69.8 °F 88% 29.85 in 10.0 mi South 6.9 mph - N/A   Clear
12:55 AM 73.4 °F - 69.8 °F 88% 29.85 in 10.0 mi South 6.9 mph - N/A   Clear
1:15 AM 73.4 °F - 71.6 °F 94% 29.84 in 10.0 mi South 6.9 mph - N/A   Clear
1:35 AM 73.4 °F - 69.8 °F 88% 29.83 in 10.0 mi SSE 8.1 mph - N/A   Clear
1:55 AM 71.6 °F - 69.8 °F 94% 29.83 in 10.0 mi South 3.5 mph - N/A   Scattered Clouds
2:15 AM 71.6 °F - 69.8 °F 94% 29.83 in 10.0 mi South 3.5 mph - N/A   Scattered Clouds
2:35 AM 71.6 °F - 69.8 °F 94% 29.82 in 10.0 mi South 3.5 mph - N/A   Mostly Cloudy
2:55 AM 71.6 °F - 69.8 °F 94% 29.82 in 10.0 mi Calm Calm - N/A   Mostly Cloudy
3:15 AM 71.6 °F - 69.8 °F 94% 29.83 in 10.0 mi South 3.5 mph - N/A   Overcast
3:35 AM 71.6 °F - 69.8 °F 94% 29.82 in 10.0 mi South 4.6 mph - N/A   Overcast
3:55 AM 71.6 °F - 69.8 °F 94% 29.82 in 10.0 mi Calm Calm - N/A   Overcast
4:15 AM 71.6 °F - 69.8 °F 94% 29.83 in 10.0 mi South 4.6 mph - N/A   Overcast
4:35 AM 71.6 °F - 69.8 °F 94% 29.82 in 10.0 mi South 4.6 mph - N/A   Overcast
4:55 AM 71.6 °F - 69.8 °F 94% 29.82 in 10.0 mi South 4.6 mph - N/A   Overcast
5:15 AM 71.6 °F - 69.8 °F 94% 29.82 in 10.0 mi South 5.8 mph - N/A   Mostly Cloudy
6:47 AM 73.4 °F - 71.6 °F 94% 29.84 in 7.0 mi South 5.8 mph - N/A   Mostly Cloudy
10:55 AM 84.2 °F 86.6 °F 66.2 °F 55% 29.88 in 7.0 mi SSW 13.8 mph 24.2 mph N/A   Mostly Cloudy
11:47 AM 84.2 °F 85.0 °F 62.6 °F 48% 29.88 in 7.0 mi SSW 18.4 mph 32.2 mph N/A   Scattered Clouds
12:47 PM 86.0 °F 86.6 °F 62.6 °F 45% 29.87 in 7.0 mi SW 19.6 mph 26.5 mph N/A   Mostly Cloudy
1:47 PM 86.0 °F 87.3 °F 64.4 °F 48% 29.81 in 7.0 mi SSW 19.6 mph 27.6 mph N/A   Mostly Cloudy
3:47 PM 84.2 °F 85.6 °F 64.4 °F 51% 29.80 in 7.0 mi SSW 17.3 mph 26.5 mph N/A   Mostly Cloudy
4:47 PM 84.2 °F 86.6 °F 66.2 °F 55% 29.82 in 7.0 mi SSW 24.2 mph 19.6 mph N/A   Mostly Cloudy
6:47 PM 80.6 °F 82.3 °F 64.4 °F 58% 29.85 in 7.0 mi SW 13.8 mph 21.9 mph N/A   Mostly Cloudy
7:15 PM 78.8 °F - 64.4 °F 61% 29.86 in 10.0 mi SW 8.1 mph - N/A   Overcast
7:35 PM 78.8 °F - 64.4 °F 61% 29.86 in 10.0 mi SW 8.1 mph - N/A   Overcast
7:55 PM 78.8 °F - 66.2 °F 65% 29.87 in 10.0 mi SW 9.2 mph - N/A   Overcast
8:15 PM 78.8 °F - 68.0 °F 69% 29.87 in 10.0 mi SSW 10.4 mph 17.3 mph N/A   Overcast
8:35 PM 78.8 °F - 68.0 °F 69% 29.87 in 10.0 mi SSW 9.2 mph - N/A   Mostly Cloudy
8:55 PM 77.0 °F - 68.0 °F 74% 29.88 in 10.0 mi SW 10.4 mph 18.4 mph N/A   Mostly Cloudy
9:15 PM 77.0 °F - 69.8 °F 78% 29.88 in 10.0 mi SW 8.1 mph - N/A   Mostly Cloudy
9:35 PM 77.0 °F - 69.8 °F 78% 29.89 in 10.0 mi SW 8.1 mph - N/A   Mostly Cloudy
9:55 PM 77.0 °F - 69.8 °F 78% 29.90 in 10.0 mi SW 10.4 mph - N/A   Overcast
10:15 PM 77.0 °F - 69.8 °F 78% 29.89 in 10.0 mi WSW 6.9 mph - N/A   Mostly Cloudy
10:35 PM 77.0 °F - 69.8 °F 78% 29.89 in 10.0 mi SW 5.8 mph - N/A   Scattered Clouds
10:55 PM 77.0 °F - 69.8 °F 78% 29.90 in 10.0 mi WSW 6.9 mph - N/A   Mostly Cloudy
11:15 PM 75.2 °F - 69.8 °F 83% 29.90 in 10.0 mi SW 9.2 mph - N/A   Overcast
11:35 PM 75.2 °F - 69.8 °F 83% 29.89 in 10.0 mi WSW 9.2 mph - N/A   Mostly Cloudy
11:55 PM 73.4 °F - 69.8 °F 88% 29.89 in 10.0 mi WSW 9.2 mph - N/A   Scattered Clouds